Regional Weather Roundup
Issued by NWS Austin/San Antonio, TX

Current Version | Previous Version | Text Only | Print | Product List | Glossary On
Versions: 1 2 3 4 5 6 7 8 9 10 11 12 13 14 15 16 17 18 19 20 21 22 23 24 25 26 27 28 29 30 31 32 33 34 35 36 37 38 39 40 41 42 43 44 45 46 47 48 49 50
000
ASUS44 KEWX 060002
RWREWX
SOUTH TEXAS REGIONAL WEATHER ROUNDUP
NATIONAL WEATHER SERVICE AUSTIN/SAN ANTONIO TX
700 PM CDT SUN JUL 05 2020

NOTE: "FAIR" INDICATED FEW OR NO CLOUDS BELOW 12,000 FEET WITH NO
SIGNIFICANT WEATHER AND/OR OBSTRUCTIONS TO VISIBILITY.

* - THESE STATIONS ARE NOT NWS OR FAA STATIONS...AND ARE NOT SUBJECT
    TO NWS AND FAA QUALITY CONTROL.

TXZ171-172-183>190-060100-
TEXAS HILL COUNTRY AND EDWARDS PLATEAU

CITY           SKY/WX    TMP DP  RH WIND       PRES   REMARKS
JUNCTION       PTSUNNY   94  66  39 S8        29.83F HX  97
6HR MIN TEMP:  87; 6HR MAX TEMP: 103; 6HR PCP: TRACE;

*LLANO         PTSUNNY   90  68  48 CALM      29.83F HX  93
BURNET         PTSUNNY   87  66  49 NE5       29.83S
6HR MIN TEMP:  83; 6HR MAX TEMP: 100; 6HR PCP: TRACE;

*HORSESHOE BAY PTSUNNY   90  66  45 NW3       29.80S HX  92
*LAGO VISTA    SUNNY     92  67  43 SE10      29.81F HX  95
6HR MIN TEMP:  92; 6HR MAX TEMP:  99;

*KERRVILLE     SUNNY     95  59  29 S5        29.83S HX  94
6HR MIN TEMP:  94; 6HR MAX TEMP: 100;

*FREDERICKSBRG PTSUNNY   95  55  26 S8        29.83F HX  93
*ROCKSPRINGS   PTSUNNY   97  57  26 SE12      29.90S HX  95
*BOERNE        SUNNY     95  55  26 SE5       29.83F HX  93
*CASTROVILLE   SUNNY    103  59  23 MISG      29.78F HX 103
HONDO          SUNNY    101  58  24 SE13      29.77S HX 100
6HR MIN TEMP:  94; 6HR MAX TEMP: 103;

*UVALDE          N/A    102  55  20 SE8       29.77S HX 100
6HR MIN TEMP:  94; 6HR MAX TEMP: 104;

DEL RIO        SUNNY    107  49  14 SE12      29.72F HX 104
6HR MIN TEMP: 101; 6HR MAX TEMP: 109;

*LAUGHLIN AFB  NOT AVBL
*SPOFFORD      NOT AVBL
*EAGLE PASS    NOT AVBL
CARRIZO SPRGS  MOSUNNY  106  52  16 S12G18    29.71F HX 103
$$

TXZ173-191>194-202-209-217>225-228-060100-
CENTRAL AND SOUTH CENTRAL TEXAS

CITY           SKY/WX    TMP DP  RH WIND       PRES   REMARKS
GEORGETOWN     MOSUNNY   94  69  44 SE7       29.81S HX  99
6HR MIN TEMP:  94; 6HR MAX TEMP:  98;

*TAYLOR        MOSUNNY   93  65  39 S9        29.79S HX  96
6HR MIN TEMP:  92; 6HR MAX TEMP:  98;

AUSTIN/BERGSTM PTSUNNY   96  66  37 SE9       29.78F HX  99
6HR MIN TEMP:  92; 6HR MAX TEMP:  97;

AUSTIN/MABRY   MOSUNNY   96  68  39 SE8G16    29.79F HX 101
6HR MIN TEMP:  94; 6HR MAX TEMP: 100;

*PFLUGERVILLE  MOSUNNY   93  63  36 S9        29.80S HX  94
SAN MARCOS     SUNNY     97  66  36 SE14      29.79S HX 100
6HR MIN TEMP:  94; 6HR MAX TEMP: 100;

NEW BRAUNFELS  SUNNY    100  65  31 SE15G21   29.77S HX 103
6HR MIN TEMP:  96; 6HR MAX TEMP: 104;

*RANDOLPH AFB  SUNNY    100  60  26 S8        29.78S HX  99
6HR MIN TEMP:  94; 6HR MAX TEMP: 101;

*SEGUIN        SUNNY     97  60  29 S13       29.82R HX  97
6HR MIN TEMP:  94; 6HR MAX TEMP: 102;

SAN ANTONIO    MOSUNNY  100  60  26 SE14      29.79S HX 100
6HR MIN TEMP:  93; 6HR MAX TEMP: 102;

STINSON FIELD  SUNNY     97  63  32 SE10      29.75S HX  98
6HR MIN TEMP:  91; 6HR MAX TEMP: 100;

*KELLY FIELD   SUNNY    100  61  27 E10       29.76S HX 101
6HR MIN TEMP:  93; 6HR MAX TEMP: 103;

*PLEASANTON    SUNNY     98  67  35 SE9G17    29.77S HX 102
6HR MIN TEMP:  93; 6HR MAX TEMP: 102;

*KENEDY        SUNNY     96  66  37 S7        29.78F HX  99
6HR MIN TEMP:  91; 6HR MAX TEMP:  98;

*LA GRANGE     PTSUNNY   96  71  43 S8        29.77F HX 103
6HR MIN TEMP:  92; 6HR MAX TEMP:  99;

*GIDDINGS      PTSUNNY   97  70  40 SE8       29.79F HX 103
6HR MIN TEMP:  93; 6HR MAX TEMP: 100;

*GONZALES      CLOUDY    98  65  34 S9        29.77S HX 100
6HR MIN TEMP:  92; 6HR MAX TEMP:  99;

$$

TXZ163>164-176>182-195>201-210>213-226-227-235-060100-
SOUTHEAST TEXAS

CITY           SKY/WX    TMP DP  RH WIND       PRES   REMARKS
COLLEGE STN    PTSUNNY   91  73  55 S12       29.78F HX  99
6HR MIN TEMP:  87; 6HR MAX TEMP:  92;

*BRYAN         PTSUNNY   91  77  62 SE8       29.80S HX 104
6HR MIN TEMP:  86; 6HR MAX TEMP:  93;

*CALDWELL      PTSUNNY   92  73  53 SE9       29.79F HX 101
*CROCKETT      NOT AVBL
*BRENHAM       PTSUNNY   91  74  57 S8        29.79F HX 101
6HR MIN TEMP:  90; 6HR MAX TEMP:  94;

HUNTSVILLE     MOSUNNY   89  72  56 S7        29.81S HX  96
6HR MIN TEMP:  87; 6HR MAX TEMP:  91; 6HR PCP: TRACE;

CONROE         PTSUNNY   90  73  57 S8        29.81F HX  98
6HR MIN TEMP:  88; 6HR MAX TEMP:  93;

HOUSTON BUSH   CLOUDY    91  71  51 CALM      29.80F HX  97
6HR MIN TEMP:  90; 6HR MAX TEMP:  96;

HOUSTON HOBBY  CLOUDY    91  72  53 S9        29.80F HX  98
6HR MIN TEMP:  89; 6HR MAX TEMP:  95; 6HR PCP: TRACE;

*HOUSTON SW AP CLOUDY    86  76  73 S3        29.82F HX  95
6HR MIN TEMP:  86; 6HR MAX TEMP:  92;

PEARLAND       CLOUDY    90  72  55 S6        29.82F HX  97
6HR MIN TEMP:  89; 6HR MAX TEMP:  95;

HOUSTON HOOKS  CLOUDY    89  71  55 S6        29.80F HX  95
6HR MIN TEMP:  87; 6HR MAX TEMP:  92;

ELLINGTON FLD  PTSUNNY   90  72  55 S9        29.79F HX  96
SUGAR LAND     CLOUDY    89  75  63 S9        29.81S HX  99
6HR MIN TEMP:  89; 6HR MAX TEMP:  95;

*HOUSTON EXEC  CLOUDY    90  75  62 S10       29.81F HX 100
*CLEVELAND MUN CLOUDY    89  76  65 S3        29.81F HX  99
*WHARTON       SUNNY     88  71  57 SE12      29.83S HX  93
6HR MIN TEMP:  88; 6HR MAX TEMP:  94;

*COLUMBUS      FAIR      90  75  61 SE5       29.81S HX  99
6HR MIN TEMP:  88; 6HR MAX TEMP:  93;

*EAGLE LAKE    PTSUNNY   94  78  60 SE10      29.80  HX 109
$$

TXZ214>216-236>238-060100-
THE UPPER TEXAS COAST

CITY           SKY/WX    TMP DP  RH WIND       PRES   REMARKS
*ORANGE        PTSUNNY   86  73  65 S8        29.84F HX  92
6HR MIN TEMP:  85; 6HR MAX TEMP:  92;

PORT ARTHUR    PTSUNNY   84  77  79 S9        29.82S HX  94
6HR MIN TEMP:  83; 6HR MAX TEMP:  93;

GALVESTON      MOSUNNY   86  77  74 S15       29.83F HX  97
6HR MIN TEMP:  86; 6HR MAX TEMP:  92;

ANGLETON       PTSUNNY   85  75  72 S15       29.83F HX  93
6HR MIN TEMP:  85; 6HR MAX TEMP:  91;

*BAY CITY      SUNNY     87  78  73 S10       29.83F HX 100
PALACIOS       SUNNY     87  77  72 SE12      29.82F HX  99
6HR MIN TEMP:  87; 6HR MAX TEMP:  90;

$$

TXZ229>234-239>247-060100-
TEXAS COASTAL BEND AND RIO GRANDE PLAINS

CITY           SKY/WX    TMP DP  RH WIND       PRES   REMARKS
VICTORIA       SUNNY     92  75  57 S18       29.80S HX 103
6HR MIN TEMP:  92; 6HR MAX TEMP:  98;

*BEEVILLE      SUNNY     94  81  65 SE14      29.77S HX 115
6HR MIN TEMP:  92; 6HR MAX TEMP:  99;

ROCKPORT       SUNNY     86  76  71 S14G20    29.80S HX  96
6HR MIN TEMP:  86; 6HR MAX TEMP:  91;

*PORT ARANSAS  SUNNY     85  78  80 SE14      29.81F HX  96
6HR MIN TEMP:  85; 6HR MAX TEMP:  88;

*PORT LAVACA   SUNNY     91  78  65 S9        29.82S HX 106
6HR MIN TEMP:  91; 6HR MAX TEMP:  96;

*INGLESIDE     SUNNY     88  79  74 S16       29.80S HX 102
CORPUS CHRISTI MOSUNNY   87  78  74 SE13      29.79S HX 100
6HR MIN TEMP:  87; 6HR MAX TEMP:  95;

CORPUS NAS     NOT AVBL
*ROBSTOWN      SUNNY     91  76  61 SE12      29.79S HX 102
6HR MIN TEMP:  91; 6HR MAX TEMP: 100;

ALICE          MOSUNNY   93  76  57 SE17      29.76F HX 105
6HR MIN TEMP:  93; 6HR MAX TEMP: 102; 6HR PCP: TRACE;

KINGSVILLE NAS NOT AVBL
COTULLA        MOSUNNY  106  56  19 SE12      29.72F HX 105
6HR MIN TEMP:  97; 6HR MAX TEMP: 108;

LAREDO         MOSUNNY  104  59  22 S12G24    29.72F HX 104
6HR MIN TEMP:  97; 6HR MAX TEMP: 106;

$$

TXZ248>255-060100-
DEEP SOUTH TEXAS

CITY           SKY/WX    TMP DP  RH WIND       PRES   REMARKS
BROWNSVILLE    SUNNY     89  74  60 SE18      29.80S HX  98
6HR MIN TEMP:  89; 6HR MAX TEMP:  95;

PORT ISAB


USA.gov is the U.S. government's official web portal to all federal, state and local government web resources and services.